Wind_Speed
18 19 18 18 17 15 14 12 9 8 7 5 6 7 7 7 6 5 5 5 5 5 6 8 11 14 16 18 19 19 19 19 19 19 18 16 14 13 10 9 7 6 5 4 9 14 10 10 13 9 8 9 14 14 9 9 9 12 10 2 4 6 7 4 2 2 6 7 5 6 7 8 9 7 8 8 9 10 10 10 10 10 11 11 12 12 13 13
17 18 18 18 17 15 14 12 10 8 7 6 6 7 7 6 6 5 5 5 5 6 8 11 16 19 21 22 21 21 20 18 18 16 13 10 9 9 8 6 5 5 4 5 9 10 11 13 12 8 8 10 12 11 5 2 7 11 4 7 6 9 9 5 5 6 7 7 8 8 8 9 8 6 6 8 11 11 11 12 10 11 13 13 14 12 13 14
17 18 18 18 17 15 14 12 10 8 7 6 6 6 6 6 6 5 5 6 5 7 11 16 20 21 22 21 19 17 16 15 14 10 7 6 7 7 6 5 5 4 4 7 8 6 11 13 16 13 10 13 14 11 2 1 6 6 6 8 8 11 9 6 7 8 8 9 11 11 9 9 8 7 7 9 10 10 12 12 10 12 13 13 14 14 14 14
17 18 18 18 17 15 14 12 10 8 7 6 5 6 6 5 5 5 5 6 6 8 14 20 22 21 20 18 16 15 16 16 10 6 6 7 7 8 7 7 6 5 5 5 9 11 11 13 15 15 14 14 12 10 4 0 2 5 9 8 8 11 11 9 8 9 11 11 11 11 9 9 9 7 8 8 8 12 14 13 13 13 13 13 14 15 15 14
16 17 18 17 17 15 14 12 10 8 7 6 5 5 5 5 5 5 5 6 7 11 18 22 21 19 17 15 14 13 14 12 6 5 8 7 7 8 8 8 7 7 6 5 9 9 10 16 15 16 14 9 5 6 5 3 3 5 11 8 7 10 11 10 9 9 10 10 10 9 8 9 8 8 9 7 8 13 14 13 14 14 14 15 16 16 15 14
15 16 17 17 17 15 13 12 10 8 7 6 5 4 5 5 5 5 5 6 8 13 20 21 20 16 13 14 14 13 13 8 6 7 8 7 7 7 7 7 8 7 6 9 10 4 11 16 18 14 10 6 4 6 5 3 4 7 13 9 8 10 10 10 10 8 7 8 9 9 10 9 8 10 10 8 11 14 13 14 15 15 15 16 16 15 14 13
15 16 16 17 17 15 13 11 10 8 7 6 5 4 5 4 5 5 5 6 9 16 20 21 18 13 12 15 16 16 13 5 4 7 6 8 7 6 5 5 6 6 8 13 7 7 8 14 17 11 10 8 6 7 5 3 5 10 11 9 10 10 10 10 10 8 7 8 9 10 11 9 9 11 11 11 14 14 14 15 15 15 15 15 15 14 13 12
15 15 16 16 17 15 13 11 9 8 7 6 5 4 4 4 5 4 4 6 10 17 21 20 15 13 13 13 12 12 8 3 3 5 6 7 7 6 5 3 4 7 11 6 6 9 9 11 11 6 7 8 5 6 6 1 5 9 7 9 11 11 11 11 12 9 8 11 11 11 13 13 12 11 12 14 15 15 15 15 16 16 15 14 13 12 11 10
15 15 15 16 16 14 12 11 9 8 7 6 5 3 3 4 4 4 5 5 10 19 21 18 14 13 11 8 8 7 3 3 2 4 5 7 7 6 6 5 5 8 9 7 8 8 7 8 9 4 3 6 5 5 7 3 9 9 6 10 11 11 11 10 11 10 10 13 12 12 15 15 13 13 15 17 16 17 17 16 16 16 14 13 12 11 10 9
14 14 14 15 15 14 11 10 9 8 7 5 4 2 3 4 3 4 5 4 12 20 20 17 14 12 8 7 7 3 3 2 1 3 6 7 7 7 7 8 7 8 6 9 7 7 5 8 8 5 5 5 6 5 6 8 11 9 6 10 10 10 10 9 11 11 12 13 11 12 16 15 12 14 18 18 17 17 16 15 16 15 13 12 11 9 8 8
12 14 14 14 15 13 11 10 10 9 7 5 3 2 3 4 3 4 5 5 12 20 20 17 13 10 8 9 8 1 5 1 1 4 7 7 8 9 10 9 7 7 7 11 9 6 3 6 8 10 8 5 5 6 8 7 6 7 8 10 11 9 8 9 10 10 12 14 13 13 17 17 14 16 19 18 16 16 15 14 14 13 12 11 10 9 8 7
11 13 13 13 14 13 10 10 10 9 7 5 3 2 4 3 3 4 5 5 11 21 21 15 11 7 7 11 6 2 5 1 1 2 6 8 8 9 9 6 4 6 9 11 12 8 3 5 9 10 6 5 5 6 5 4 4 6 7 8 10 9 7 9 11 10 11 14 14 14 17 18 15 16 18 16 16 15 14 13 13 12 10 10 9 8 7 6
11 11 13 12 12 13 10 9 10 10 8 5 2 2 4 3 3 4 5 5 12 21 21 14 9 5 8 8 1 2 3 1 2 4 6 8 5 5 7 6 5 10 7 6 8 6 4 5 5 7 6 4 4 3 2 3 5 5 5 5 9 11 8 8 10 10 11 12 11 12 13 13 14 15 15 15 15 14 13 12 11 10 9 9 8 7 6 6
11 10 12 11 11 12 10 9 9 9 8 5 1 2 4 3 3 5 5 6 12 21 20 13 8 6 8 5 4 5 3 1 4 5 7 6 4 4 7 5 6 10 6 6 7 6 6 8 4 4 6 6 4 3 2 5 6 3 3 3 6 9 7 7 8 7 10 12 10 12 13 11 12 12 12 13 12 12 11 10 9 9 8 7 7 6 6 6
11 9 10 11 10 11 10 9 9 10 8 5 1 2 3 3 3 5 5 6 12 20 20 13 10 7 2 3 3 4 4 3 3 3 5 7 7 6 6 4 5 8 6 9 12 9 6 6 5 3 5 7 6 4 2 2 3 1 2 1 2 6 7 7 5 6 8 9 7 10 13 12 11 10 10 11 12 11 10 9 8 8 7 7 6 6 5 5
12 9 8 10 9 10 10 9 9 10 8 5 1 2 3 3 4 6 5 6 12 20 20 13 11 3 4 2 2 3 3 2 1 2 3 3 7 8 8 6 7 6 6 9 10 7 3 3 2 1 3 3 4 7 4 2 4 1 2 4 4 4 8 7 4 7 9 6 4 8 12 12 10 9 8 9 11 10 9 9 8 7 7 6 5 5 4 5
13 9 7 9 9 9 10 10 9 9 8 4 3 4 4 4 6 7 6 6 11 19 20 12 8 6 7 5 7 5 1 2 1 1 3 5 9 8 8 6 5 5 6 5 6 10 5 1 2 4 5 5 4 5 4 2 4 5 4 4 5 4 7 9 6 7 8 5 5 8 11 11 9 9 8 8 10 9 7 7 8 7 6 5 4 4 3 4
13 10 7 8 8 8 9 10 9 9 7 4 4 5 6 8 10 11 10 8 10 15 17 11 6 8 10 8 7 3 2 4 2 3 5 8 12 7 6 5 4 6 7 6 7 8 4 2 5 7 6 4 1 2 4 1 3 8 6 5 6 6 6 8 8 6 4 6 10 11 10 11 10 10 9 8 10 9 5 5 7 6 5 4 3 3 2 4
13 10 7 6 7 7 8 9 9 8 5 5 5 7 10 12 12 11 11 9 9 9 9 8 5 4 5 4 3 2 3 5 2 3 2 5 10 7 4 9 7 5 8 8 11 13 8 4 7 6 5 4 4 2 4 1 4 7 8 8 9 9 8 8 9 7 4 6 11 12 11 11 11 10 8 8 10 9 6 5 5 4 4 4 2 1 2 4
13 10 7 6 7 6 6 8 8 7 4 6 8 8 5 4 3 2 3 2 5 5 4 6 6 4 5 4 4 5 5 5 2 4 2 3 4 4 4 14 13 6 7 8 10 13 10 4 5 5 6 6 4 2 3 2 4 6 7 8 9 10 11 10 8 7 6 6 8 9 10 11 11 10 8 8 9 9 8 5 4 4 3 3 1 0 2 4
13 10 7 5 6 5 5 6 7 5 3 7 9 4 2 4 2 4 5 3 6 9 6 4 7 7 2 1 2 6 7 5 3 3 3 3 2 0 7 15 16 11 7 7 6 7 7 5 6 5 5 6 4 2 4 4 3 3 4 7 8 9 11 10 8 8 6 6 8 9 10 10 10 10 9 9 8 8 7 5 4 4 3 3 2 1 2 5
13 11 7 5 5 4 3 4 5 4 2 6 7 4 6 7 2 3 7 4 4 9 7 4 7 8 4 3 4 6 6 6 5 4 4 5 3 5 11 13 15 12 8 8 6 4 4 6 8 7 6 4 3 3 3 5 6 5 4 7 9 9 9 9 9 7 4 6 8 7 9 10 9 8 9 9 7 7 6 4 4 5 4 4 3 2 3 5
12 11 8 5 4 4 3 3 3 2 0 4 5 5 8 7 2 2 7 5 3 7 8 7 7 8 7 7 5 5 5 6 5 4 6 4 2 3 9 9 11 10 8 7 7 5 5 9 10 7 7 5 4 5 3 5 8 7 5 6 9 7 5 8 9 6 3 6 6 4 7 10 8 7 8 8 7 4 5 4 4 4 4 4 4 3 3 5
12 12 8 5 3 3 2 2 2 1 1 2 3 5 7 8 4 1 6 6 5 6 6 7 8 9 9 6 4 5 6 7 7 2 4 2 2 2 6 5 5 8 8 5 6 6 6 10 8 4 7 5 5 7 4 4 6 7 7 6 8 7 6 8 8 5 2 2 3 2 5 7 7 8 8 7 5 5 7 6 5 4 4 5 5 3 4 6
11 11 9 5 3 2 2 3 2 1 2 2 3 5 6 8 5 2 3 4 7 7 4 6 9 8 8 6 6 5 7 9 5 2 1 3 3 2 5 4 2 5 6 4 6 7 7 10 8 5 7 7 7 8 5 5 3 5 8 7 7 7 7 9 7 4 2 1 2 3 3 4 7 8 8 8 7 7 9 8 6 5 4 5 6 5 5 8
11 11 9 5 2 2 2 3 3 2 3 4 4 5 5 6 5 2 3 7 9 6 4 6 7 7 7 5 6 5 7 7 6 4 4 4 3 1 3 1 2 6 4 5 7 6 6 9 8 7 8 7 7 7 6 5 4 5 8 8 7 6 7 8 6 5 4 3 2 2 2 3 6 8 8 9 8 8 9 8 8 7 6 5 5 5 6 9
10 10 9 6 3 2 2 3 5 5 4 3 5 6 5 6 4 2 3 8 9 7 5 7 6 8 7 4 7 6 3 1 6 6 4 5 5 1 2 1 4 4 3 5 8 4 4 6 8 8 9 7 6 5 5 5 6 8 9 7 8 7 8 5 3 5 2 1 2 2 2 1 4 8 9 9 9 9 9 8 9 9 8 6 5 5 7 8
10 9 8 6 3 3 3 4 6 6 4 3 5 6 5 6 5 3 3 4 4 7 7 8 8 8 6 3 7 10 5 2 4 5 2 4 5 2 5 3 4 1 3 7 8 4 3 5 8 10 9 6 7 5 5 7 7 8 8 7 7 7 9 5 4 5 0 2 1 5 2 1 4 9 11 10 10 10 10 10 10 11 10 9 7 5 6 4
10 9 8 6 4 3 3 4 6 6 5 5 5 5 5 6 5 4 4 4 4 7 8 8 8 8 7 4 6 11 11 5 3 3 3 6 7 4 6 3 2 3 2 6 6 5 4 3 5 9 9 7 9 6 4 7 7 7 7 7 5 7 9 6 4 6 2 1 4 8 4 1 4 11 12 10 11 11 10 12 11 12 13 10 6 4 6 5
10 9 8 6 5 4 4 5 5 5 6 5 5 4 5 7 6 4 4 4 4 4 6 6 7 7 9 8 6 7 9 7 6 3 4 8 8 6 6 3 2 4 3 2 5 5 4 4 4 6 7 7 8 5 4 5 4 5 7 8 6 5 7 5 4 5 2 3 1 6 6 4 2 8 11 10 11 11 11 13 12 14 15 10 7 9 9 7
10 9 8 7 6 5 5 5 5 5 6 6 5 4 5 7 6 6 5 5 6 4 5 6 4 6 9 9 9 8 7 11 12 6 4 6 7 7 6 3 1 6 5 3 4 3 3 4 1 2 5 3 2 1 3 3 3 6 7 9 8 5 5 3 1 2 2 4 3 3 4 3 1 5 8 6 10 12 12 14 13 15 16 11 10 10 9 8
11 10 8 8 7 6 6 5 4 5 6 6 5 6 6 4 7 10 6 4 6 4 5 7 5 6 8 8 10 8 6 10 11 6 4 6 7 8 6 3 1 5 5 3 2 0 2 4 2 2 2 2 3 1 1 3 2 4 7 10 8 4 3 3 2 2 6 5 0 0 3 3 1 4 6 5 7 11 11 13 13 16 16 12 11 10 9 11
11 10 9 8 8 7 6 5 5 5 6 7 8 9 6 4 8 12 8 4 3 2 4 7 7 7 8 8 9 9 8 8 7 5 5 6 8 8 7 5 5 7 6 3 2 4 1 5 4 1 1 3 6 2 1 3 3 5 9 11 9 5 4 4 3 3 6 7 5 2 2 2 3 1 5 7 7 8 9 11 12 15 15 11 12 11 12 12
12 10 9 8 8 8 7 6 6 6 7 8 9 9 6 8 9 10 10 6 5 4 6 6 4 6 9 11 10 10 11 8 7 8 7 7 8 8 6 5 7 8 8 5 2 1 3 3 3 2 1 3 4 3 2 1 5 7 6 8 8 5 5 2 3 5 6 5 6 5 2 1 3 4 5 6 7 6 9 12 12 14 14 10 12 12 11 12
13 11 10 8 8 9 8 7 7 7 8 10 10 8 9 12 11 8 9 8 5 5 7 7 5 6 8 10 11 10 10 7 6 7 8 7 8 8 6 7 8 8 7 5 3 5 3 2 3 4 2 2 2 2 3 1 1 2 5 6 5 4 5 1 4 7 7 3 3 5 2 1 1 3 4 4 6 6 10 13 11 12 12 9 13 13 11 11
14 11 10 8 8 9 9 8 8 8 9 11 10 10 13 13 11 6 5 6 4 3 6 8 7 9 9 9 10 10 10 8 7 9 10 9 9 9 6 6 7 5 4 5 5 5 4 6 3 6 3 1 3 3 2 0 2 3 2 5 3 2 5 2 3 7 4 2 2 3 1 3 2 2 3 6 6 6 11 12 10 12 10 8 13 15 14 13
15 12 10 9 9 10 10 10 9 9 11 12 11 13 14 13 12 8 5 5 5 5 5 7 8 9 10 10 9 8 7 6 7 9 10 8 8 9 8 7 6 5 4 6 7 6 6 6 2 5 5 3 1 3 6 5 3 3 3 5 3 2 4 5 3 4 2 1 2 2 3 6 2 1 3 6 6 6 10 11 11 12 10 8 15 17 15 14
16 13 10 10 10 10 11 11 10 10 11 12 13 14 14 13 11 8 6 6 7 6 7 8 6 7 10 8 8 8 8 5 6 8 8 7 7 8 8 8 7 6 7 8 7 4 6 4 3 1 2 3 2 4 7 8 6 5 5 6 5 4 3 4 2 2 3 2 2 1 4 4 1 1 2 4 5 7 10 12 12 12 8 9 15 16 15 14
15 12 10 10 11 11 12 12 11 12 13 13 13 13 13 14 10 8 8 7 7 6 8 10 8 7 11 9 7 9 10 9 7 7 9 7 6 8 8 8 8 7 6 7 8 5 6 6 2 2 4 2 3 5 5 4 5 7 9 9 6 4 3 3 2 5 5 1 3 2 2 1 2 2 1 2 5 6 9 12 13 11 7 9 14 14 15 14
15 10 10 11 9 11 13 12 12 14 14 13 13 12 11 12 11 10 10 9 8 7 8 10 9 8 9 9 8 8 10 12 11 10 9 8 8 10 9 8 9 7 4 5 8 6 4 6 4 3 5 6 5 5 6 6 4 4 8 9 7 6 7 5 2 5 2 4 1 1 2 2 4 2 5 2 3 6 8 10 11 11 8 8 12 15 16 15
13 9 12 13 9 11 13 13 14 15 14 13 13 13 12 13 10 7 8 10 10 10 9 9 8 8 9 9 9 9 9 12 11 10 10 9 9 10 9 9 10 9 5 5 7 6 4 6 6 7 7 7 6 6 7 10 7 5 8 8 5 5 7 5 2 3 3 2 3 2 1 3 2 6 7 5 2 5 8 7 10 12 9 8 12 15 15 14
12 9 13 14 10 11 14 14 13 12 13 14 12 11 15 16 13 8 7 9 11 12 11 10 9 9 9 9 9 10 9 10 11 11 11 10 9 9 9 9 10 10 8 7 5 5 7 8 8 10 9 9 9 7 6 8 9 11 11 8 7 6 4 5 4 3 4 4 3 1 2 1 2 5 5 7 6 2 6 3 7 11 10 9 11 14 14 14
13 12 15 14 10 12 14 14 12 12 14 15 12 11 13 14 13 13 11 9 10 11 11 11 11 11 11 10 9 10 10 10 11 11 11 11 9 9 8 7 9 9 8 9 6 5 6 7 9 12 11 10 8 6 6 5 7 11 10 9 10 8 7 9 7 5 6 8 4 4 2 3 3 2 1 3 5 1 2 2 6 10 10 9 10 12 12 12
15 15 15 13 9 12 15 14 10 10 12 14 14 13 12 11 10 11 11 9 9 11 12 12 11 11 12 11 11 11 10 9 10 9 11 13 10 9 8 8 9 9 7 7 6 8 7 6 8 10 10 9 5 4 8 6 6 11 13 11 11 11 10 10 10 9 6 4 6 4 3 5 3 2 1 1 1 1 1 4 7 8 9 9 10 12 13 13
14 13 13 14 12 12 14 14 11 12 13 12 15 15 13 13 13 12 12 10 9 9 11 12 12 12 12 12 12 13 12 11 10 9 10 12 11 10 9 8 8 8 9 6 4 7 9 8 9 9 9 7 4 4 7 7 9 13 13 10 10 12 12 10 11 10 5 4 5 1 3 4 5 4 1 3 2 3 4 6 6 8 9 9 10 10 12 14
14 11 7 10 13 13 14 16 16 17 14 8 12 16 15 15 14 14 14 13 10 10 10 11 10 11 13 13 13 13 13 14 13 12 11 10 11 11 11 10 9 11 15 14 11 10 10 10 12 13 12 10 9 8 8 9 12 13 12 11 11 13 13 11 12 10 8 9 6 1 1 5 5 3 2 3 5 7 7 7 7 10 13 11 9 8 11 15
15 11 6 5 9 10 11 14 15 17 15 8 9 12 14 14 13 12 14 14 12 11 12 12 11 11 11 12 12 12 12 13 14 14 14 13 12 12 13 13 13 15 19 18 15 13 13 13 14 15 15 15 14 13 12 12 14 14 15 15 14 13 13 13 14 12 10 11 7 2 4 6 6 5 6 7 7 7 6 6 6 10 14 14 11 9 10 13
14 12 11 13 13 7 5 10 13 15 16 14 12 10 10 13 13 12 12 12 11 11 12 12 13 13 12 12 13 13 13 14 14 14 14 14 14 14 14 13 12 13 15 15 14 12 13 16 16 15 17 16 15 15 15 15 16 16 18 18 15 16 16 15 15 13 12 13 10 7 8 9 9 8 8 7 6 4 4 7 8 8 12 15 13 12 11 12
14 14 16 19 18 15 9 12 14 14 14 16 16 14 12 12 14 14 13 12 11 11 11 12 13 14 15 15 15 15 14 14 16 15 13 13 13 14 14 12 10 9 8 9 13 12 12 14 14 13 16 16 15 15 15 16 18 19 18 19 19 20 18 13 12 14 13 13 11 10 10 11 10 10 9 7 5 3 2 5 10 9 9 12 13 11 11 12
17 18 20 21 20 19 19 17 15 12 12 14 16 16 15 14 14 14 14 14 13 12 12 13 13 13 13 15 17 18 16 14 14 15 14 14 14 14 14 13 12 12 7 5 6 10 12 13 11 11 14 15 15 15 16 17 19 19 19 19 19 21 20 15 12 14 15 15 14 12 12 11 8 7 8 6 4 5 3 5 10 10 9 11 13 12 11 12
20 20 20 20 19 19 21 19 15 12 12 13 14 15 15 15 15 14 14 15 15 14 14 13 13 14 15 16 16 17 15 14 15 14 12 13 14 12 11 12 13 13 11 8 7 9 11 12 12 13 15 16 15 15 17 19 19 18 18 18 16 16 17 15 14 16 16 16 14 12 11 9 5 5 5 5 5 6 7 9 11 12 12 12 15 15 11 13
21 19 18 19 19 19 17 15 14 15 14 13 13 13 14 14 14 14 16 15 14 14 14 13 14 17 18 19 17 12 11 15 18 16 11 13 13 11 10 12 13 13 13 13 12 11 10 12 14 15 16 15 13 14 18 20 17 14 13 12 11 11 12 13 15 16 16 15 14 12 10 8 7 6 4 5 8 10 11 13 11 13 17 17 17 17 13 14
Wind_Direction
16 13 12 12 12 10 10 10 12 20 31 32 21 21 30 38 44 51 54 56 54 43 51 71 89 96 96 95 92 92 93 97 103 98 95 93 97 108 106 106 108 92 82 69 51 36 10 328 332 321 291 303 303 287 301 334 319 318 323 13 70 104 96 83 149 122 102 105 106 107 98 88 90 83 78 82 76 76 83 86 87 87 90 93 95 100 99 93
15 13 12 13 12 11 10 9 10 19 29 29 19 22 32 39 48 56 62 67 66 58 73 96 105 105 102 99 97 97 99 102 99 89 87 82 78 83 80 85 76 67 50 20 39 19 339 323 313 283 269 294 310 307 298 313 311 315 0 98 85 91 93 95 116 110 110 115 109 103 95 94 99 94 86 85 78 74 82 85 85 86 87 90 94 94 91 90
14 13 12 13 13 12 10 7 10 16 24 27 19 21 33 42 51 59 69 75 74 76 97 112 113 110 105 101 97 94 92 84 76 77 85 71 58 55 52 52 30 29 18 17 47 16 331 310 291 280 288 294 298 308 286 169 323 337 82 98 93 95 101 103 97 97 100 103 101 99 101 99 98 98 90 85 82 81 84 84 89 94 92 91 94 93 89 90
12 13 12 13 14 12 10 7 8 12 20 25 17 21 36 41 50 66 76 83 85 99 116 120 117 110 102 95 84 78 77 72 68 77 77 56 46 47 33 28 13 0 357 1 50 34 328 292 294 293 289 292 291 293 289 324 0 64 74 74 91 102 111 109 94 93 100 108 109 106 104 93 93 99 89 85 91 90 86 88 93 95 94 92 93 92 90 90
8 12 11 12 14 13 10 8 7 10 14 21 18 19 34 40 55 69 80 92 98 117 126 125 120 110 99 87 76 71 71 75 92 79 67 57 49 51 37 31 20 6 355 346 42 37 292 279 296 300 292 295 297 304 342 325 263 89 83 89 93 90 99 103 98 97 105 114 108 101 95 87 94 101 92 89 94 94 94 97 95 94 94 94 92 90 89 87
4 11 10 10 14 13 10 8 8 10 8 17 18 15 32 46 59 69 88 99 111 130 133 129 124 113 99 85 76 71 65 72 92 72 65 65 56 52 41 32 26 22 37 33 27 316 271 282 294 313 323 326 339 326 359 342 299 72 83 87 86 89 96 100 103 107 112 107 95 94 92 89 94 96 93 91 93 95 100 103 98 97 96 94 92 90 88 84
359 9 9 9 12 12 11 8 9 10 4 11 11 17 38 51 60 72 90 100 127 140 138 134 127 112 94 85 77 68 63 62 76 73 67 59 51 45 36 27 28 33 49 39 5 280 283 295 297 319 333 331 353 340 354 13 17 63 80 82 83 90 94 99 105 111 118 108 97 99 98 93 92 92 94 95 96 98 100 101 100 98 93 90 89 88 86 82
354 5 9 7 10 12 13 10 11 10 3 5 8 23 46 63 64 67 83 108 139 146 143 137 124 103 91 89 78 64 69 92 74 73 60 46 40 31 22 19 28 40 45 22 293 299 307 304 314 326 319 323 351 345 335 11 80 68 74 86 88 92 97 104 104 100 104 101 98 103 102 93 89 92 96 96 96 98 102 103 100 95 91 89 88 85 83 80
350 359 7 7 9 12 14 13 13 10 6 2 5 32 64 79 65 59 82 119 147 152 148 136 120 104 93 88 64 48 94 142 92 70 42 33 35 27 21 22 22 34 26 305 293 335 327 335 348 332 311 327 344 352 320 341 81 78 81 88 90 98 101 104 102 97 97 97 99 103 99 92 91 97 97 96 99 101 103 103 97 93 91 90 87 83 79 77
349 352 3 7 7 12 14 14 13 11 9 0 5 43 88 89 64 61 82 121 153 158 150 134 122 104 89 75 46 33 168 155 78 39 24 30 25 14 18 14 12 19 340 287 328 15 354 354 352 4 33 337 338 24 3 19 66 80 85 89 91 98 96 91 89 89 95 97 101 103 97 92 95 102 101 101 103 103 101 100 95 93 91 89 86 82 74 69
350 345 357 5 5 10 12 10 9 9 9 3 10 69 110 98 63 63 85 120 161 164 153 139 123 97 79 54 29 153 154 117 26 13 2 17 13 5 5 351 353 357 288 269 310 347 355 348 357 25 26 334 356 59 56 50 94 101 90 94 96 100 95 85 81 85 94 93 93 97 96 95 97 102 105 105 103 101 99 96 93 91 90 88 86 80 69 60
350 341 348 1 5 6 9 7 4 6 7 4 16 113 127 108 65 67 92 123 166 168 159 146 126 104 69 50 34 133 110 39 52 33 346 3 6 357 351 353 353 304 282 283 299 311 357 356 353 13 13 335 21 79 95 98 143 110 91 102 107 109 91 80 83 82 83 86 90 90 89 92 100 104 104 106 104 101 96 92 90 89 84 80 76 72 62 48
351 340 340 354 3 3 6 3 358 2 4 5 25 144 136 115 71 70 94 127 166 172 165 152 135 105 64 60 263 208 101 281 335 17 4 8 13 355 354 11 321 291 298 308 299 310 18 43 350 348 25 10 11 52 70 86 116 106 83 102 114 110 100 86 85 75 67 78 90 88 90 97 106 110 108 106 105 102 97 92 91 88 81 74 66 63 54 38
350 342 334 345 359 2 3 358 353 358 0 4 24 160 139 119 77 70 95 133 167 174 166 154 142 107 76 51 288 250 213 286 354 10 5 339 282 305 358 20 328 319 339 332 337 7 28 57 53 350 32 31 358 333 330 80 114 130 71 96 113 109 117 101 93 95 82 89 103 100 107 117 116 118 117 113 110 106 104 98 92 88 84 76 63 56 45 34
347 346 332 335 351 360 358 355 350 352 357 4 39 148 134 112 75 71 95 137 166 173 169 166 166 149 87 336 321 247 260 345 14 353 344 321 311 326 342 19 16 348 345 346 356 10 15 29 33 351 5 24 19 334 296 111 156 173 43 201 141 106 117 108 112 136 108 95 105 108 116 126 125 127 126 120 117 113 114 109 98 90 86 77 61 47 38 29
341 349 335 329 344 356 354 354 350 350 357 5 58 126 125 100 73 71 89 137 164 173 173 175 181 190 351 317 310 318 320 350 53 9 348 324 347 0 352 8 34 359 344 12 357 324 343 55 129 242 304 316 346 338 332 202 211 183 113 180 173 129 128 132 137 136 127 108 92 108 122 135 136 128 127 122 118 120 116 112 108 98 91 81 62 46 33 20
336 351 344 327 336 351 351 352 352 351 356 16 91 112 111 80 68 69 79 133 161 173 179 177 190 257 307 281 290 311 277 286 355 7 305 322 340 359 11 8 42 11 329 347 319 293 303 16 220 247 276 282 286 307 308 173 194 207 179 161 160 134 135 147 146 128 131 136 119 107 118 139 144 130 133 129 123 130 125 112 114 104 93 88 70 53 31 9
333 351 352 330 331 346 349 350 357 356 2 52 101 104 89 70 76 84 81 109 146 170 185 188 192 245 274 279 285 273 218 278 295 260 284 359 13 30 36 2 46 31 335 311 328 332 321 315 312 281 272 307 338 232 262 300 160 188 164 140 159 145 133 145 148 141 128 132 128 118 123 142 145 142 148 140 130 139 145 120 114 109 101 96 77 53 23 353
330 347 359 339 327 342 348 347 359 2 21 86 112 100 79 63 77 87 71 92 140 158 184 210 217 248 292 298 265 241 246 249 264 314 286 9 21 52 29 344 11 16 330 340 359 359 355 342 339 305 276 332 38 70 282 313 119 151 136 125 137 126 117 125 135 149 150 130 125 126 138 146 148 156 158 142 140 149 164 156 129 118 108 100 92 53 358 333
327 342 3 350 326 340 346 345 0 9 49 118 125 100 67 42 67 72 22 65 186 198 231 242 236 257 304 299 241 224 239 239 290 340 295 298 348 68 358 335 2 7 321 354 359 347 352 350 347 325 304 342 31 30 347 34 106 131 129 120 116 105 106 116 127 150 165 134 125 134 139 145 152 158 164 154 152 162 174 177 152 128 119 119 124 10 318 319
322 335 1 357 330 333 338 345 357 8 71 145 145 114 193 211 221 225 220 243 241 238 255 258 234 234 259 347 236 250 260 259 284 285 274 302 266 225 316 324 358 18 359 13 356 328 358 359 352 10 357 11 52 49 37 47 62 92 94 103 107 97 102 114 120 136 160 132 130 143 138 147 156 154 165 165 162 173 178 178 157 144 141 140 155 247 298 313
317 327 352 1 336 326 332 345 351 10 68 171 174 165 181 186 191 196 203 233 246 228 231 238 233 224 232 317 283 267 254 245 263 225 238 305 282 272 299 318 350 15 26 25 359 320 9 7 359 20 13 14 50 44 68 56 40 58 73 80 80 81 105 117 116 130 157 122 132 152 138 143 156 156 161 167 182 187 177 182 168 158 160 163 192 229 285 303
312 318 338 359 338 320 318 331 343 12 89 197 195 178 177 186 178 195 216 220 215 231 238 240 230 217 240 291 288 245 221 240 276 209 208 283 327 303 306 317 339 5 32 23 359 342 5 14 11 20 10 355 35 34 33 51 46 56 69 75 66 64 104 110 112 127 113 110 137 155 129 133 149 152 154 174 201 183 153 178 175 165 173 185 207 233 274 278
308 310 324 346 336 314 298 284 310 336 193 199 218 195 187 195 194 220 216 214 236 246 248 234 227 225 231 253 253 229 237 264 294 230 178 293 296 280 320 335 340 355 15 13 8 5 5 12 0 19 32 359 24 38 26 44 49 52 58 68 69 74 95 92 103 120 78 106 168 156 121 139 158 157 158 178 194 161 161 183 187 189 185 190 219 249 269 271
303 305 314 329 328 302 283 251 256 281 223 247 236 208 207 209 216 251 211 245 251 227 234 222 214 229 230 234 239 241 258 256 270 256 187 318 295 263 328 0 10 338 357 359 356 353 13 22 347 351 32 355 2 26 31 44 37 64 67 51 56 83 97 86 86 92 49 62 171 184 153 159 176 170 166 171 179 174 178 189 191 197 196 199 225 249 263 275
299 301 306 314 313 279 264 243 233 214 222 256 231 206 218 214 221 246 227 266 253 208 228 219 202 231 233 229 226 246 277 237 197 226 244 253 253 332 347 19 296 300 327 352 353 353 22 24 336 336 15 359 3 16 27 40 8 43 59 36 40 66 80 88 82 57 33 12 26 197 175 165 178 176 174 173 179 183 185 192 191 200 217 216 221 239 255 272
296 296 300 303 297 260 245 238 230 223 227 245 222 213 217 209 221 241 243 267 246 203 212 208 212 241 234 232 218 224 328 100 184 229 258 242 222 305 327 74 342 290 208 332 357 22 29 14 340 356 27 15 10 17 26 22 2 33 49 39 41 36 41 64 28 8 2 100 67 188 170 175 188 177 178 174 175 184 190 194 192 203 222 230 241 261 259 272
292 289 294 294 283 252 241 234 232 236 241 234 224 221 213 208 214 212 245 286 238 205 206 205 228 237 217 244 233 224 252 334 246 218 194 241 214 248 286 319 355 251 201 323 354 51 29 1 341 10 43 25 16 36 39 19 11 31 41 41 36 6 3 12 12 11 320 135 222 235 214 225 199 174 172 171 176 189 194 194 197 203 216 237 258 271 246 251
288 283 285 284 269 247 239 236 234 232 230 234 232 219 209 204 193 199 243 287 265 226 216 220 244 235 210 236 239 230 240 251 246 197 193 248 241 261 290 306 309 285 307 336 8 47 30 3 341 11 36 30 35 47 9 9 29 44 39 36 28 1 352 332 0 31 342 284 226 218 199 174 173 162 166 174 185 193 196 200 201 199 212 241 250 214 211 195
284 278 275 274 262 241 236 237 233 225 218 225 227 212 202 189 187 211 229 262 273 214 202 238 259 225 205 223 226 223 246 235 212 253 265 243 242 258 283 284 281 330 8 17 12 20 12 10 12 24 29 26 36 43 10 9 26 26 21 22 15 359 358 338 0 37 352 325 174 177 190 235 194 159 171 183 192 194 195 201 200 194 206 229 210 186 197 190
281 276 269 266 258 239 237 238 230 222 209 210 215 198 182 180 203 238 228 251 269 219 205 245 252 212 204 222 221 202 242 242 219 240 270 221 222 233 253 258 270 343 342 294 325 347 353 359 11 28 30 18 333 12 46 23 356 1 5 15 11 340 341 8 47 98 80 1 354 121 149 191 143 160 174 178 190 191 191 197 194 190 197 211 204 180 181 207
278 273 267 262 254 240 235 231 223 218 200 198 201 172 161 190 230 242 239 255 268 248 242 241 215 210 211 226 235 213 252 259 214 207 243 215 222 229 228 229 273 316 318 298 292 179 350 332 282 330 18 347 318 288 21 7 16 11 351 349 357 343 342 20 355 50 90 79 34 51 93 128 153 190 172 148 170 181 188 193 187 187 192 201 200 173 175 220
273 270 268 260 248 236 227 220 215 213 195 190 190 172 174 245 239 238 246 239 244 279 276 248 219 213 211 219 235 219 238 264 220 219 255 226 235 246 235 238 257 272 296 320 218 180 312 318 291 286 194 323 358 59 128 25 3 342 343 342 341 344 3 10 353 24 80 84 72 12 2 51 1 30 137 127 142 164 181 182 178 186 197 202 196 180 180 207
270 268 266 256 243 231 219 213 211 207 195 188 183 176 209 257 248 249 264 251 238 259 265 265 242 216 218 229 241 224 219 231 218 232 251 228 242 256 249 260 254 259 289 307 306 34 21 358 291 274 265 289 344 39 91 43 337 329 349 350 333 339 15 0 319 12 45 62 74 81 82 49 6 44 96 123 137 141 161 168 171 185 203 206 189 184 184 196
268 266 263 253 239 227 214 210 207 201 197 185 180 193 223 241 237 243 267 260 254 250 240 251 249 235 233 234 250 249 233 231 219 235 242 229 247 255 250 267 252 251 284 291 0 25 13 326 267 260 307 224 218 359 27 102 38 358 13 356 325 348 32 241 285 23 40 11 72 94 80 295 287 55 72 129 140 132 152 164 170 183 204 207 182 187 190 192
267 263 261 251 234 224 215 210 203 199 198 183 187 220 230 234 238 257 283 255 267 289 238 229 226 238 238 225 248 257 240 240 237 243 249 234 242 252 249 268 248 234 275 287 331 350 290 301 264 222 249 219 221 260 245 191 122 149 341 326 267 333 21 341 335 52 64 306 84 107 19 33 74 96 119 151 149 142 153 160 168 182 207 205 180 190 192 190
266 260 256 249 234 225 217 209 204 201 196 190 205 229 235 242 255 284 305 252 266 304 271 247 226 228 230 219 236 237 205 223 227 231 254 249 242 245 244 261 256 243 285 302 315 326 320 324 215 217 257 230 246 267 234 270 295 195 270 310 266 279 21 0 348 64 60 310 86 104 71 69 81 176 139 150 155 162 163 162 174 192 215 202 182 192 199 199
264 262 260 251 234 226 220 210 207 203 194 200 221 229 231 242 257 276 284 265 271 276 263 264 247 239 252 241 230 218 202 217 215 217 249 253 241 243 240 252 251 247 282 300 294 305 334 323 191 180 329 187 221 293 246 245 257 251 281 306 279 261 16 11 323 42 33 355 349 46 116 105 147 162 114 165 177 182 177 173 187 209 221 194 187 194 204 210
263 265 267 254 233 224 221 213 209 204 197 208 233 237 230 239 254 266 267 265 272 262 245 253 253 259 275 269 237 228 230 235 225 232 251 237 236 258 259 263 263 252 264 287 287 288 314 305 209 108 0 305 263 280 259 238 252 268 281 294 297 302 355 353 349 34 59 148 310 309 171 80 82 104 11 211 187 188 187 185 197 217 217 192 197 200 204 214
258 258 259 252 235 222 219 216 213 206 202 213 233 241 241 251 261 263 258 250 250 252 247 255 258 254 265 265 241 234 247 249 236 234 245 235 244 265 265 264 267 263 253 271 282 284 278 275 265 279 299 292 289 291 282 286 289 240 257 284 310 330 322 300 356 34 60 184 206 263 206 91 89 43 7 38 173 190 193 194 197 208 217 208 209 208 208 217
254 250 253 251 237 224 217 215 215 208 212 228 235 241 248 251 254 258 257 247 241 245 250 260 265 252 249 251 243 239 254 260 249 240 249 247 244 253 255 254 257 263 275 274 273 281 275 272 287 294 283 275 302 316 279 280 302 280 267 286 284 289 312 314 339 354 319 221 180 213 214 131 79 10 14 15 302 198 181 192 194 197 219 231 220 217 220 229
245 232 246 248 232 222 216 211 216 215 224 236 234 244 254 248 243 252 268 260 247 245 246 250 255 254 252 253 252 246 247 256 255 247 250 249 244 251 255 252 253 260 277 280 269 265 262 271 291 295 293 290 298 312 283 274 303 300 290 296 286 275 297 297 278 289 326 314 240 205 60 144 334 352 9 5 352 138 147 174 198 198 221 249 239 228 226 233
235 222 240 249 229 221 218 209 214 225 235 240 237 244 259 257 250 251 260 262 248 241 240 244 249 252 253 260 264 252 248 260 259 249 251 254 248 245 244 247 250 251 263 274 282 279 254 264 286 285 291 294 280 294 301 281 301 307 299 295 297 294 278 273 285 309 326 330 349 60 77 246 285 348 19 11 2 44 123 190 208 205 222 244 241 233 230 232
236 232 243 253 230 223 222 203 203 234 241 245 249 248 252 257 251 245 246 252 248 240 238 243 247 247 248 254 258 254 258 270 264 253 260 268 267 253 239 236 239 241 253 263 280 300 289 282 292 290 292 289 260 292 314 302 308 320 315 302 302 308 295 281 294 302 296 333 16 59 177 238 281 312 244 190 252 285 209 214 218 214 222 232 227 229 237 239
240 241 247 250 236 229 222 201 207 240 241 242 250 249 251 255 250 243 237 239 246 244 242 245 247 248 250 251 252 253 255 262 266 265 263 264 270 268 247 226 224 242 260 260 267 299 296 283 286 294 300 304 307 317 310 298 299 309 310 299 299 311 311 301 299 301 308 345 353 81 197 269 308 311 246 154 191 239 236 246 242 215 212 227 235 235 241 248
232 228 232 253 249 243 229 210 214 227 223 234 254 247 248 255 254 252 243 236 239 244 247 249 246 248 252 251 253 255 251 252 258 264 266 261 261 263 256 253 258 256 256 260 269 281 285 280 278 280 282 287 291 289 288 291 295 298 296 287 289 302 312 317 308 305 322 328 326 101 266 301 314 308 197 206 249 247 244 264 261 232 218 224 255 259 239 248
230 217 189 221 242 250 243 226 226 227 218 235 270 254 248 251 248 253 252 243 240 244 247 247 244 248 252 250 255 259 257 256 254 252 257 261 261 261 261 262 264 257 253 260 272 275 273 273 273 276 277 276 278 282 286 287 284 285 287 285 287 292 294 296 293 293 304 301 292 326 313 299 307 290 251 255 262 241 245 279 288 258 229 225 257 271 244 255
224 213 203 209 204 196 247 241 234 234 233 247 265 258 252 251 241 241 246 246 245 243 244 244 241 244 248 248 252 259 262 263 262 260 260 261 261 263 264 261 257 261 262 260 261 262 265 270 271 274 277 275 278 284 282 277 276 280 288 292 293 290 283 275 276 283 287 280 279 299 301 297 301 283 265 275 265 233 262 278 274 261 230 232 259 263 253 269
216 213 219 225 206 182 196 224 221 226 236 246 252 249 248 251 246 238 238 246 250 242 239 243 245 246 248 248 250 255 259 259 262 268 269 269 271 269 269 268 266 281 282 254 252 258 264 271 272 276 282 281 280 282 279 279 281 282 290 297 299 303 304 295 290 294 291 288 297 309 309 311 309 291 291 297 264 249 301 251 251 263 255 256 265 256 259 279
217 218 223 231 222 204 206 212 210 221 235 236 241 245 243 245 247 243 238 241 246 245 241 246 253 253 250 250 250 249 252 257 265 269 266 270 279 280 274 267 269 284 285 233 245 263 264 270 277 286 293 289 284 283 282 284 286 285 289 289 291 310 321 314 307 307 302 300 304 308 309 311 312 309 315 315 287 287 281 224 239 259 266 268 269 266 272 281
223 228 228 232 232 223 220 217 212 224 235 232 238 245 243 241 242 245 246 242 242 247 245 246 257 258 247 247 249 247 249 258 259 257 260 266 271 272 263 254 258 274 277 262 263 266 262 270 279 284 284 282 285 292 292 292 292 289 289 280 277 301 312 299 297 306 305 303 301 299 301 301 312 342 330 306 304 298 270 261 256 238 225 236 257 267 270 268
225 231 232 234 236 231 228 227 227 233 237 234 237 245 247 246 243 243 248 246 243 246 246 247 259 259 244 237 239 242 259 265 251 242 259 273 264 255 252 252 255 262 268 265 260 257 260 270 278 276 271 270 278 287 293 296 293 286 289 286 279 292 299 293 296 301 304 308 304 294 291 294 307 320 300 263 281 282 274 282 275 234 220 223 239 253 254 251
Height
3153 3151 3150 3149 3147 3146 3144 3143 3142 3141 3140 3140 3139 3138 3138 3137 3137 3137 3137 3136 3136 3135 3135 3135 3134 3134 3133 3133 3133 3133 3133 3133 3134 3134 3134 3134 3134 3134 3134 3135 3135 3135 3135 3135 3135 3133 3134 3137 3137 3137 3137 3138 3137 3134 3134 3134 3133 3132 3130 3129 3128 3128 3129 3130 3131 3129 3128 3129 3129 3129 3129 3129 3129 3129 3130 3129 3129 3129 3130 3130 3130 3131 3131 3131 3132 3132 3133 3134
3154 3152 3150 3149 3147 3146 3145 3143 3142 3142 3141 3140 3139 3139 3138 3138 3138 3138 3137 3137 3137 3137 3136 3136 3136 3136 3135 3135 3135 3135 3135 3136 3135 3134 3135 3137 3137 3136 3136 3136 3136 3136 3136 3136 3134 3134 3138 3139 3137 3135 3136 3137 3136 3134 3133 3133 3132 3131 3130 3129 3128 3129 3129 3130 3131 3129 3129 3129 3129 3129 3130 3130 3130 3130 3130 3130 3130 3130 3130 3130 3131 3132 3132 3132 3133 3133 3134 3135
3154 3152 3151 3149 3148 3146 3145 3144 3143 3142 3142 3141 3140 3139 3139 3139 3138 3138 3138 3138 3138 3138 3138 3138 3138 3137 3137 3137 3137 3137 3137 3137 3136 3136 3138 3139 3139 3138 3138 3138 3138 3137 3137 3137 3135 3136 3140 3138 3133 3135 3137 3137 3135 3134 3133 3132 3132 3130 3129 3129 3129 3130 3130 3131 3131 3130 3130 3130 3130 3130 3130 3130 3130 3130 3130 3130 3130 3131 3131 3132 3132 3133 3134 3134 3134 3135 3135 3136
3155 3153 3151 3150 3148 3147 3146 3144 3144 3143 3142 3141 3141 3140 3140 3139 3139 3139 3139 3139 3139 3139 3139 3139 3139 3139 3139 3139 3139 3139 3138 3138 3138 3140 3140 3140 3140 3139 3139 3139 3139 3138 3138 3138 3136 3137 3140 3136 3133 3135 3136 3135 3135 3135 3133 3130 3131 3130 3129 3130 3129 3130 3131 3132 3132 3130 3131 3130 3130 3130 3130 3130 3130 3130 3131 3131 3131 3131 3132 3133 3134 3134 3135 3135 3135 3136 3136 3137
3156 3154 3152 3150 3149 3147 3146 3145 3144 3143 3143 3142 3141 3141 3140 3140 3140 3140 3140 3140 3140 3140 3140 3140 3141 3141 3141 3141 3141 3141 3139 3140 3142 3142 3142 3141 3141 3141 3140 3140 3139 3139 3138 3138 3137 3139 3140 3136 3134 3135 3134 3135 3134 3134 3132 3130 3130 3130 3131 3131 3130 3131 3131 3132 3133 3131 3131 3130 3130 3130 3130 3129 3130 3130 3131 3132 3132 3133 3133 3134 3135 3136 3136 3136 3137 3137 3137 3138
3156 3155 3153 3151 3150 3148 3146 3145 3144 3144 3143 3142 3142 3141 3141 3141 3141 3141 3141 3141 3141 3141 3141 3142 3142 3142 3142 3142 3142 3142 3141 3142 3143 3143 3143 3143 3142 3142 3141 3141 3140 3139 3139 3139 3138 3139 3139 3136 3136 3135 3134 3135 3134 3133 3133 3132 3131 3130 3132 3132 3132 3132 3132 3133 3133 3131 3130 3130 3130 3130 3130 3130 3130 3130 3132 3133 3133 3134 3134 3135 3136 3137 3137 3138 3138 3138 3139 3139
3156 3155 3153 3151 3150 3149 3147 3146 3145 3144 3144 3143 3142 3142 3142 3142 3142 3142 3142 3142 3142 3142 3143 3143 3143 3144 3144 3144 3143 3143 3143 3144 3145 3144 3144 3144 3143 3143 3142 3141 3141 3140 3140 3139 3140 3140 3140 3137 3137 3136 3135 3136 3135 3134 3134 3134 3132 3131 3133 3133 3133 3134 3133 3133 3132 3131 3130 3130 3130 3130 3130 3130 3131 3131 3132 3133 3133 3135 3136 3136 3137 3138 3138 3139 3139 3139 3140 3140
3156 3156 3154 3152 3150 3149 3148 3146 3145 3144 3144 3143 3143 3143 3143 3142 3142 3143 3142 3143 3143 3143 3144 3144 3145 3145 3145 3145 3144 3144 3145 3146 3146 3145 3145 3145 3144 3143 3142 3142 3142 3141 3141 3141 3141 3141 3140 3139 3138 3137 3137 3137 3136 3136 3135 3133 3133 3133 3134 3134 3134 3135 3133 3132 3132 3131 3131 3130 3130 3130 3130 3130 3131 3132 3133 3134 3134 3136 3137 3138 3138 3139 3139 3140 3140 3141 3141 3141
3157 3156 3155 3153 3151 3149 3148 3147 3146 3145 3144 3144 3143 3143 3143 3143 3143 3143 3143 3143 3143 3144 3145 3145 3146 3146 3146 3146 3145 3145 3146 3146 3146 3146 3146 3145 3145 3144 3143 3143 3142 3142 3142 3141 3142 3142 3140 3140 3139 3138 3138 3138 3137 3137 3135 3132 3133 3134 3134 3134 3135 3135 3133 3132 3132 3132 3131 3131 3132 3131 3130 3131 3132 3133 3134 3135 3136 3137 3138 3139 3139 3140 3141 3141 3142 3142 3142 3142
3157 3156 3155 3153 3151 3150 3149 3147 3146 3145 3145 3144 3144 3144 3144 3143 3144 3144 3144 3144 3144 3145 3145 3146 3147 3147 3147 3147 3146 3147 3147 3147 3147 3147 3146 3146 3145 3144 3144 3143 3143 3144 3144 3142 3142 3143 3142 3141 3140 3138 3138 3138 3136 3136 3136 3134 3134 3135 3135 3136 3136 3135 3134 3133 3133 3133 3132 3132 3132 3132 3132 3133 3134 3134 3134 3136 3137 3138 3139 3139 3140 3141 3142 3142 3142 3143 3142 3142
3157 3156 3155 3154 3152 3151 3149 3148 3147 3146 3145 3144 3144 3144 3144 3144 3144 3144 3144 3144 3145 3145 3146 3147 3148 3148 3148 3147 3147 3147 3147 3148 3148 3148 3147 3147 3146 3145 3145 3145 3145 3146 3144 3143 3143 3143 3143 3142 3141 3139 3138 3138 3136 3136 3137 3136 3136 3136 3136 3137 3137 3136 3135 3135 3134 3133 3133 3133 3133 3133 3133 3134 3135 3135 3136 3137 3138 3139 3140 3140 3140 3142 3143 3143 3143 3143 3143 3142
3158 3156 3155 3154 3153 3151 3150 3149 3147 3146 3145 3145 3144 3144 3144 3144 3144 3144 3145 3145 3145 3146 3147 3148 3148 3149 3148 3148 3148 3148 3148 3149 3149 3149 3149 3148 3148 3148 3147 3147 3147 3146 3144 3144 3144 3143 3142 3142 3142 3141 3140 3139 3137 3137 3137 3136 3136 3136 3136 3137 3137 3136 3135 3135 3135 3134 3134 3134 3135 3135 3134 3135 3137 3137 3137 3138 3139 3139 3141 3141 3141 3142 3143 3144 3144 3144 3143 3143
3158 3156 3155 3154 3153 3152 3150 3149 3148 3147 3146 3145 3145 3145 3145 3145 3145 3145 3145 3145 3146 3147 3148 3149 3149 3149 3149 3149 3149 3149 3149 3150 3149 3149 3150 3150 3150 3149 3147 3148 3147 3145 3145 3145 3144 3143 3142 3142 3143 3143 3141 3139 3137 3136 3136 3136 3138 3137 3137 3137 3137 3136 3136 3136 3135 3135 3135 3135 3135 3135 3136 3138 3138 3138 3139 3139 3139 3140 3141 3142 3142 3143 3144 3144 3144 3144 3143 3143
3158 3156 3155 3154 3154 3152 3150 3149 3148 3147 3146 3145 3145 3145 3145 3145 3145 3145 3145 3145 3146 3147 3149 3150 3150 3150 3150 3150 3150 3149 3150 3150 3150 3150 3151 3150 3149 3148 3148 3148 3147 3144 3144 3144 3144 3143 3143 3142 3143 3143 3142 3140 3138 3137 3138 3138 3138 3137 3137 3137 3137 3137 3136 3136 3137 3137 3136 3135 3135 3135 3136 3139 3139 3139 3140 3140 3140 3140 3141 3142 3143 3143 3144 3144 3144 3144 3144 3143
3157 3157 3155 3154 3154 3152 3151 3150 3149 3147 3147 3146 3145 3145 3146 3146 3146 3146 3146 3146 3146 3148 3149 3150 3151 3151 3151 3151 3150 3150 3150 3150 3151 3152 3151 3150 3148 3148 3148 3148 3147 3145 3143 3143 3143 3144 3143 3142 3143 3143 3142 3141 3140 3139 3139 3139 3138 3137 3136 3138 3138 3138 3137 3138 3138 3138 3137 3136 3135 3135 3136 3139 3140 3140 3140 3140 3141 3141 3142 3143 3143 3144 3144 3145 3145 3144 3144 3143
3157 3156 3155 3154 3153 3152 3151 3150 3149 3148 3147 3146 3146 3146 3146 3146 3147 3147 3147 3147 3147 3149 3150 3151 3152 3152 3152 3152 3150 3150 3151 3151 3152 3152 3151 3149 3149 3149 3148 3148 3148 3148 3146 3145 3143 3143 3143 3142 3143 3143 3142 3141 3141 3140 3139 3139 3139 3137 3137 3138 3139 3139 3139 3139 3139 3139 3138 3138 3137 3137 3137 3139 3140 3140 3141 3141 3141 3142 3143 3143 3144 3144 3145 3145 3145 3144 3144 3144
3156 3156 3155 3154 3153 3152 3151 3150 3149 3148 3147 3147 3147 3147 3147 3147 3148 3148 3148 3148 3148 3150 3151 3152 3153 3153 3152 3152 3151 3151 3152 3152 3152 3152 3151 3150 3149 3149 3149 3148 3149 3149 3148 3146 3145 3145 3144 3143 3143 3143 3142 3141 3140 3140 3140 3140 3139 3138 3137 3138 3139 3140 3140 3140 3139 3139 3140 3140 3139 3138 3139 3140 3140 3140 3141 3141 3142 3143 3143 3144 3144 3145 3145 3145 3145 3144 3144 3144
3156 3156 3155 3154 3153 3152 3151 3150 3149 3149 3148 3148 3148 3148 3148 3149 3149 3149 3149 3149 3150 3151 3152 3152 3153 3153 3152 3152 3151 3152 3152 3152 3152 3152 3150 3149 3149 3149 3149 3148 3148 3149 3148 3146 3146 3146 3145 3144 3143 3142 3142 3141 3140 3140 3140 3139 3139 3137 3136 3137 3139 3140 3141 3140 3139 3140 3140 3140 3140 3140 3141 3141 3141 3141 3141 3142 3143 3144 3144 3144 3144 3145 3145 3145 3145 3145 3144 3144
3155 3155 3155 3154 3153 3152 3151 3150 3150 3149 3149 3149 3149 3149 3150 3150 3150 3150 3150 3150 3151 3152 3153 3153 3152 3153 3153 3152 3152 3152 3152 3152 3151 3151 3151 3151 3150 3150 3149 3148 3149 3149 3148 3146 3146 3146 3145 3144 3143 3142 3141 3141 3140 3139 3139 3138 3138 3137 3137 3138 3138 3139 3140 3141 3141 3141 3141 3141 3141 3141 3142 3142 3142 3142 3142 3143 3144 3145 3146 3145 3145 3145 3145 3146 3145 3145 3145 3145
3155 3155 3155 3154 3153 3152 3152 3151 3150 3150 3149 3150 3150 3150 3151 3151 3152 3152 3151 3151 3153 3154 3154 3154 3153 3153 3153 3152 3152 3152 3152 3151 3151 3152 3153 3152 3152 3152 3149 3148 3149 3148 3148 3147 3147 3147 3146 3145 3144 3143 3141 3141 3139 3138 3139 3139 3138 3138 3138 3138 3138 3139 3140 3142 3142 3143 3142 3141 3142 3143 3143 3144 3144 3144 3144 3145 3145 3146 3146 3146 3145 3145 3146 3146 3146 3145 3145 3145
3154 3154 3154 3154 3153 3152 3152 3151 3151 3150 3150 3150 3150 3151 3150 3151 3152 3152 3152 3152 3154 3154 3153 3153 3153 3152 3152 3152 3152 3152 3151 3151 3151 3153 3154 3152 3152 3152 3149 3148 3148 3148 3148 3147 3147 3147 3146 3145 3144 3143 3143 3142 3141 3140 3141 3141 3140 3139 3139 3139 3139 3139 3140 3142 3142 3143 3142 3142 3143 3143 3144 3145 3145 3145 3145 3146 3146 3146 3146 3146 3146 3146 3146 3146 3146 3146 3145 3145
3154 3154 3154 3154 3153 3152 3152 3151 3151 3151 3151 3151 3151 3151 3151 3152 3152 3151 3152 3152 3153 3153 3153 3153 3152 3152 3152 3152 3152 3152 3152 3152 3151 3152 3153 3152 3152 3152 3149 3148 3148 3148 3147 3146 3146 3146 3145 3145 3144 3144 3144 3143 3142 3142 3141 3140 3140 3140 3140 3139 3139 3140 3141 3142 3142 3143 3142 3142 3143 3143 3143 3144 3144 3145 3145 3146 3146 3146 3145 3146 3146 3146 3147 3146 3146 3146 3145 3145
3154 3153 3154 3153 3152 3152 3152 3151 3151 3151 3151 3151 3152 3152 3151 3152 3152 3152 3152 3152 3152 3152 3152 3152 3152 3152 3152 3152 3151 3151 3152 3152 3152 3152 3151 3151 3153 3152 3149 3149 3149 3148 3147 3148 3147 3147 3146 3146 3145 3145 3144 3143 3142 3142 3141 3141 3141 3140 3140 3140 3141 3141 3141 3142 3143 3143 3142 3143 3143 3143 3143 3144 3144 3144 3145 3146 3146 3145 3146 3146 3146 3146 3147 3146 3146 3145 3145 3145
3153 3153 3153 3153 3152 3152 3152 3151 3151 3151 3151 3152 3152 3152 3152 3152 3153 3153 3152 3152 3151 3151 3151 3152 3151 3151 3152 3151 3151 3151 3152 3152 3152 3152 3150 3151 3153 3152 3150 3150 3150 3149 3148 3149 3148 3147 3147 3147 3146 3145 3145 3143 3143 3143 3143 3142 3141 3141 3141 3141 3141 3142 3142 3142 3143 3144 3144 3144 3143 3142 3144 3145 3144 3145 3145 3146 3146 3146 3147 3148 3147 3147 3147 3146 3146 3145 3145 3144
3152 3152 3152 3152 3152 3151 3151 3151 3151 3151 3152 3152 3152 3152 3152 3153 3153 3153 3153 3152 3151 3151 3151 3151 3151 3151 3151 3150 3150 3152 3152 3152 3152 3152 3151 3152 3153 3152 3151 3151 3152 3151 3150 3150 3149 3148 3148 3148 3146 3145 3145 3145 3144 3144 3144 3143 3142 3142 3142 3142 3142 3143 3143 3144 3143 3144 3144 3144 3144 3143 3145 3145 3145 3145 3146 3146 3146 3147 3148 3148 3148 3147 3146 3146 3145 3145 3145 3144
3152 3151 3151 3151 3151 3151 3151 3151 3151 3151 3151 3151 3151 3152 3152 3153 3153 3153 3153 3153 3151 3150 3150 3150 3150 3150 3150 3150 3151 3152 3151 3150 3151 3152 3152 3152 3152 3152 3152 3152 3152 3151 3151 3150 3149 3148 3149 3148 3146 3145 3145 3146 3146 3145 3144 3143 3143 3143 3143 3144 3144 3143 3144 3144 3144 3144 3144 3145 3145 3144 3144 3144 3145 3145 3146 3146 3147 3148 3148 3148 3148 3148 3147 3146 3145 3145 3145 3144
3151 3150 3150 3151 3151 3150 3151 3151 3151 3150 3151 3151 3151 3152 3152 3153 3153 3153 3153 3153 3150 3149 3149 3149 3149 3149 3149 3150 3151 3151 3151 3150 3150 3151 3152 3151 3151 3152 3152 3151 3151 3151 3151 3150 3149 3149 3150 3148 3146 3146 3146 3146 3146 3146 3145 3145 3145 3145 3145 3145 3145 3144 3145 3145 3144 3144 3144 3144 3145 3145 3145 3144 3145 3146 3146 3147 3147 3148 3148 3148 3149 3148 3147 3146 3145 3145 3145 3144
3150 3150 3150 3150 3150 3150 3150 3150 3150 3150 3151 3151 3151 3152 3152 3153 3154 3154 3154 3153 3149 3148 3149 3148 3148 3149 3150 3150 3150 3150 3151 3151 3150 3150 3151 3152 3151 3152 3152 3151 3151 3151 3151 3150 3149 3150 3151 3149 3146 3146 3146 3146 3146 3146 3146 3146 3146 3146 3146 3146 3146 3144 3145 3144 3143 3144 3145 3144 3144 3145 3146 3145 3145 3146 3146 3147 3147 3147 3148 3148 3148 3148 3147 3146 3145 3145 3145 3144
3149 3149 3149 3149 3149 3149 3149 3149 3150 3150 3150 3151 3151 3152 3152 3153 3154 3154 3155 3154 3148 3147 3148 3148 3147 3148 3150 3150 3150 3149 3149 3151 3151 3150 3151 3152 3151 3151 3152 3152 3152 3152 3152 3151 3150 3150 3151 3149 3147 3147 3146 3146 3146 3147 3147 3146 3147 3147 3146 3146 3146 3145 3145 3144 3143 3144 3145 3145 3145 3146 3146 3145 3145 3145 3146 3147 3147 3147 3147 3147 3147 3147 3147 3146 3146 3146 3145 3145
3148 3148 3148 3148 3149 3149 3149 3149 3149 3150 3150 3151 3151 3152 3153 3153 3154 3154 3155 3153 3147 3146 3148 3147 3147 3148 3149 3150 3150 3150 3149 3150 3151 3150 3151 3151 3151 3151 3151 3151 3152 3152 3151 3151 3152 3151 3151 3149 3148 3147 3147 3147 3147 3148 3148 3147 3147 3147 3146 3146 3146 3146 3145 3144 3144 3144 3146 3147 3146 3146 3147 3146 3145 3145 3145 3145 3145 3146 3146 3146 3147 3147 3147 3146 3146 3147 3146 3146
3148 3147 3147 3148 3148 3148 3148 3148 3149 3149 3150 3151 3151 3152 3153 3153 3154 3154 3153 3150 3147 3146 3147 3148 3148 3148 3148 3149 3149 3150 3149 3148 3148 3150 3150 3150 3151 3151 3151 3151 3152 3151 3151 3152 3152 3151 3151 3150 3149 3149 3148 3148 3148 3147 3148 3148 3148 3147 3146 3146 3146 3146 3145 3144 3144 3144 3148 3152 3150 3147 3148 3147 3146 3145 3145 3145 3145 3145 3145 3146 3147 3147 3147 3146 3146 3147 3147 3146
3147 3147 3147 3147 3147 3147 3147 3148 3148 3149 3150 3150 3151 3152 3153 3154 3154 3153 3150 3149 3147 3146 3147 3147 3148 3148 3149 3149 3148 3148 3148 3146 3146 3148 3149 3150 3150 3150 3151 3151 3151 3151 3150 3150 3150 3151 3151 3151 3150 3150 3149 3148 3148 3148 3148 3149 3149 3149 3148 3148 3148 3146 3145 3147 3145 3144 3150 3154 3152 3150 3149 3147 3147 3146 3145 3145 3146 3146 3146 3146 3147 3147 3147 3147 3147 3147 3148 3147
3146 3146 3146 3146 3146 3146 3147 3147 3148 3149 3149 3150 3151 3152 3153 3154 3153 3150 3148 3148 3147 3147 3147 3147 3147 3147 3148 3149 3148 3148 3148 3147 3147 3148 3148 3149 3150 3150 3150 3150 3151 3150 3149 3149 3149 3150 3150 3150 3151 3150 3149 3149 3149 3149 3149 3149 3150 3150 3151 3151 3152 3149 3149 3151 3148 3145 3150 3153 3151 3150 3148 3147 3147 3146 3145 3146 3146 3147 3147 3147 3147 3147 3147 3147 3147 3147 3148 3147
3145 3145 3145 3145 3146 3146 3146 3147 3147 3148 3149 3150 3151 3152 3154 3154 3151 3149 3148 3147 3147 3148 3148 3147 3147 3147 3148 3148 3146 3146 3146 3146 3147 3148 3148 3149 3149 3149 3149 3150 3150 3150 3149 3149 3149 3149 3150 3151 3151 3150 3149 3149 3149 3149 3149 3150 3150 3151 3152 3153 3154 3153 3154 3154 3150 3147 3151 3152 3150 3149 3148 3148 3148 3147 3146 3147 3146 3147 3147 3147 3147 3147 3147 3147 3148 3148 3148 3147
3144 3144 3145 3145 3145 3145 3146 3146 3147 3148 3148 3149 3151 3152 3153 3152 3150 3148 3147 3147 3146 3147 3148 3148 3148 3148 3147 3147 3146 3145 3145 3145 3146 3147 3147 3148 3148 3148 3148 3149 3149 3149 3149 3149 3148 3149 3150 3150 3150 3150 3149 3149 3150 3149 3149 3150 3150 3150 3151 3151 3151 3152 3153 3152 3150 3150 3152 3151 3150 3149 3148 3148 3147 3146 3147 3147 3147 3148 3148 3147 3147 3147 3147 3147 3148 3148 3148 3147
3143 3143 3144 3144 3144 3144 3145 3146 3146 3147 3148 3149 3150 3151 3151 3150 3148 3147 3147 3147 3146 3146 3147 3147 3148 3148 3147 3147 3147 3145 3145 3145 3147 3148 3147 3147 3147 3147 3148 3148 3148 3148 3149 3148 3148 3148 3148 3148 3148 3149 3148 3149 3150 3150 3149 3150 3150 3150 3151 3149 3149 3150 3151 3150 3149 3150 3152 3151 3151 3150 3148 3147 3147 3146 3146 3147 3147 3148 3148 3148 3147 3146 3146 3146 3147 3148 3148 3147
3142 3142 3143 3143 3143 3144 3144 3145 3146 3147 3147 3148 3149 3149 3149 3149 3149 3148 3147 3147 3147 3147 3147 3147 3146 3147 3146 3146 3146 3146 3145 3145 3147 3148 3146 3146 3146 3147 3147 3147 3147 3147 3148 3148 3148 3147 3147 3147 3147 3148 3148 3148 3149 3149 3149 3148 3149 3150 3150 3148 3148 3149 3149 3149 3149 3150 3153 3153 3151 3150 3149 3147 3147 3146 3146 3147 3148 3148 3148 3148 3147 3146 3145 3146 3147 3148 3148 3147
3141 3142 3142 3142 3143 3143 3144 3144 3145 3146 3147 3147 3147 3147 3147 3147 3148 3149 3148 3148 3148 3148 3148 3147 3146 3146 3146 3145 3145 3145 3146 3145 3146 3147 3147 3146 3146 3146 3146 3147 3147 3147 3148 3148 3147 3147 3147 3147 3147 3148 3148 3147 3148 3149 3149 3148 3148 3149 3149 3148 3148 3148 3147 3148 3148 3149 3155 3158 3154 3151 3149 3148 3148 3148 3147 3148 3148 3148 3149 3148 3147 3146 3146 3147 3148 3148 3148 3147
3140 3141 3141 3141 3141 3142 3143 3144 3145 3146 3146 3146 3147 3147 3147 3146 3147 3148 3148 3148 3148 3148 3148 3148 3147 3147 3146 3145 3145 3145 3145 3145 3145 3147 3146 3145 3146 3146 3146 3147 3147 3147 3148 3148 3148 3147 3147 3147 3147 3148 3148 3148 3148 3148 3148 3149 3149 3149 3149 3147 3147 3147 3147 3148 3148 3147 3153 3159 3157 3152 3149 3148 3148 3148 3148 3148 3148 3148 3148 3148 3148 3146 3147 3148 3148 3148 3147 3146
3139 3140 3140 3139 3140 3141 3142 3143 3144 3145 3145 3145 3146 3147 3148 3147 3147 3148 3147 3147 3148 3148 3148 3147 3147 3148 3147 3147 3146 3146 3146 3144 3144 3145 3145 3145 3146 3146 3147 3148 3147 3147 3148 3148 3148 3147 3148 3147 3147 3148 3148 3147 3147 3147 3148 3149 3148 3148 3149 3148 3148 3149 3147 3147 3147 3147 3149 3152 3152 3150 3149 3148 3148 3148 3148 3148 3147 3147 3147 3148 3148 3148 3147 3147 3147 3147 3147 3146
3138 3139 3138 3138 3139 3140 3141 3142 3143 3144 3144 3145 3146 3146 3147 3147 3147 3147 3146 3146 3147 3148 3147 3147 3147 3148 3148 3147 3147 3147 3147 3145 3143 3144 3145 3145 3146 3146 3147 3147 3147 3147 3147 3148 3148 3147 3148 3147 3147 3147 3147 3146 3146 3147 3147 3147 3147 3147 3147 3147 3147 3148 3147 3146 3146 3146 3146 3146 3146 3147 3148 3148 3148 3148 3148 3147 3146 3146 3147 3147 3148 3148 3147 3147 3146 3147 3146 3145
3137 3137 3136 3136 3138 3139 3140 3141 3142 3143 3144 3144 3146 3146 3145 3144 3145 3146 3146 3146 3146 3146 3147 3147 3147 3147 3147 3147 3147 3146 3146 3146 3145 3144 3144 3144 3145 3146 3146 3147 3147 3147 3147 3147 3147 3147 3147 3147 3147 3146 3146 3145 3145 3145 3146 3147 3147 3147 3146 3146 3145 3145 3146 3146 3145 3145 3144 3144 3144 3145 3148 3149 3149 3149 3149 3148 3147 3146 3146 3147 3147 3147 3147 3146 3145 3146 3146 3145
3135 3135 3134 3134 3137 3138 3138 3140 3141 3143 3143 3144 3145 3146 3144 3144 3145 3145 3145 3146 3146 3146 3146 3147 3147 3147 3147 3147 3147 3146 3146 3146 3145 3144 3144 3144 3144 3145 3146 3146 3147 3147 3147 3147 3146 3146 3146 3147 3147 3146 3145 3145 3144 3145 3146 3146 3147 3146 3145 3145 3145 3144 3144 3144 3144 3144 3144 3144 3144 3146 3149 3149 3147 3147 3148 3148 3147 3147 3147 3147 3146 3146 3147 3146 3145 3145 3145 3145
3133 3134 3133 3134 3135 3136 3137 3139 3140 3142 3143 3143 3144 3144 3143 3143 3143 3144 3144 3145 3145 3145 3146 3146 3146 3146 3146 3147 3147 3146 3146 3145 3145 3145 3145 3144 3143 3144 3145 3146 3146 3147 3147 3147 3146 3146 3147 3148 3147 3146 3145 3144 3144 3145 3146 3146 3146 3146 3145 3145 3144 3143 3143 3142 3142 3143 3143 3144 3144 3145 3146 3146 3145 3145 3146 3146 3147 3147 3146 3147 3145 3145 3147 3147 3147 3146 3145 3144
3132 3133 3133 3133 3134 3135 3136 3138 3139 3140 3141 3142 3142 3142 3142 3142 3142 3142 3143 3143 3144 3145 3145 3145 3145 3145 3145 3146 3146 3146 3146 3145 3145 3145 3145 3144 3144 3144 3144 3145 3145 3147 3147 3147 3146 3147 3147 3148 3148 3147 3146 3145 3145 3146 3147 3147 3146 3146 3145 3145 3144 3143 3142 3142 3142 3142 3142 3143 3143 3143 3144 3144 3143 3144 3144 3144 3145 3145 3145 3145 3145 3144 3145 3146 3147 3146 3144 3143
3130 3131 3132 3132 3132 3133 3135 3136 3136 3137 3138 3139 3140 3141 3141 3141 3141 3141 3141 3141 3142 3143 3144 3144 3144 3145 3145 3145 3145 3145 3145 3145 3145 3145 3145 3145 3145 3144 3144 3144 3145 3146 3146 3146 3147 3148 3148 3148 3148 3147 3146 3146 3147 3147 3147 3147 3146 3145 3144 3143 3143 3143 3142 3142 3141 3141 3142 3143 3142 3142 3143 3142 3142 3142 3143 3143 3143 3144 3144 3144 3144 3144 3144 3144 3144 3144 3143 3142
3128 3130 3131 3132 3131 3131 3133 3135 3136 3136 3137 3138 3138 3139 3139 3139 3140 3140 3139 3140 3141 3142 3142 3142 3143 3143 3144 3144 3144 3144 3144 3144 3144 3144 3144 3144 3144 3145 3145 3145 3146 3145 3145 3146 3147 3147 3147 3147 3147 3147 3146 3146 3146 3145 3146 3146 3145 3144 3142 3141 3142 3142 3141 3141 3141 3141 3142 3142 3141 3141 3142 3142 3141 3141 3141 3142 3142 3143 3142 3142 3142 3142 3143 3143 3143 3143 3142 3142
3127 3128 3129 3129 3129 3130 3132 3133 3134 3135 3137 3137 3137 3137 3138 3139 3139 3140 3139 3139 3140 3141 3141 3141 3141 3142 3143 3143 3144 3143 3143 3143 3143 3143 3143 3144 3144 3144 3143 3144 3145 3144 3143 3145 3146 3146 3146 3146 3146 3146 3145 3144 3144 3144 3145 3145 3144 3143 3141 3141 3141 3141 3140 3139 3139 3140 3141 3140 3139 3140 3141 3141 3141 3139 3139 3140 3140 3142 3142 3140 3140 3141 3141 3142 3142 3142 3142 3141
3125 3126 3126 3126 3127 3128 3129 3130 3132 3133 3135 3136 3136 3136 3137 3138 3138 3139 3139 3139 3139 3139 3140 3140 3140 3141 3141 3142 3143 3143 3143 3143 3142 3142 3142 3142 3142 3141 3141 3141 3142 3142 3143 3144 3145 3145 3145 3145 3145 3145 3144 3143 3143 3143 3143 3143 3143 3142 3141 3140 3139 3139 3139 3138 3138 3139 3139 3139 3138 3139 3139 3140 3139 3138 3137 3137 3138 3139 3140 3140 3139 3139 3140 3141 3142 3142 3141 3140
3122 3122 3123 3124 3125 3126 3126 3127 3129 3131 3132 3133 3134 3134 3135 3136 3137 3137 3138 3138 3138 3139 3139 3139 3139 3140 3140 3141 3141 3141 3142 3142 3142 3142 3142 3142 3141 3141 3140 3140 3141 3142 3142 3143 3144 3144 3145 3144 3144 3144 3143 3142 3142 3142 3142 3142 3141 3140 3140 3139 3139 3139 3138 3138 3138 3139 3139 3138 3138 3138 3138 3139 3138 3137 3136 3137 3137 3138 3139 3139 3139 3138 3138 3139 3141 3141 3140 3139
3118 3120 3121 3122 3123 3124 3125 3126 3128 3129 3130 3131 3131 3132 3133 3134 3135 3136 3137 3137 3137 3137 3137 3138 3138 3138 3138 3138 3138 3139 3141 3140 3139 3139 3140 3140 3140 3140 3140 3141 3142 3142 3143 3143 3144 3144 3145 3144 3144 3144 3143 3141 3142 3142 3141 3141 3140 3139 3139 3138 3139 3140 3140 3139 3139 3138 3138 3137 3137 3137 3137 3138 3138 3137 3137 3136 3137 3137 3137 3138 3138 3137 3136 3138 3139 3140 3140 3139
3116 3118 3120 3121 3121 3122 3123 3125 3126 3126 3127 3128 3130 3131 3131 3132 3133 3135 3135 3135 3136 3136 3136 3137 3136 3135 3134 3135 3135 3136 3136 3134 3134 3135 3136 3136 3136 3138 3139 3140 3141 3141 3142 3143 3143 3144 3144 3143 3144 3144 3142 3140 3141 3141 3141 3141 3140 3138 3138 3138 3138 3139 3139 3138 3137 3137 3137 3137 3136 3136 3136 3136 3136 3137 3137 3136 3135 3136 3135 3135 3136 3135 3135 3136 3137 3137 3139 3139